User: anonymous   Login
Location: Poughquag
(41.6090°N, 73.6820°W)
Time: 06:12:45
(UTC-04:00)
Language:

Transit 4A - Orbit

View from above orbital plane
View from above orbital plane
View from above satellite
View from above satellite

Ground track
Ground track

The orbit data is extracted from the following two-line orbital elements,

1   116U 61015A   20224.87766256 -.00000089 +00000-0 -94761-5 0  9999
2   116 066.8096 072.7286 0079229 325.6326 033.9642 13.91773299999536
Epoch (UTC): 11 August 2020 21:03:50
Eccentricity: 0.0079229
inclination: 66.8096°
perigee height: 864 km
apogee height: 980 km
right ascension of ascending node: 72.7286°
argument of perigee: 325.6326°
revolutions per day: 13.91773299
mean anomaly at epoch: 33.9642°
orbit number at epoch: 99953

The dashed part of the orbit path shows where the satellite is in the earth's shadow,  

DLR